,,Stat6,,Stat2,,Stat8,,Stat9,,Stat10,,Wind1,,Wind1,
time,status,PA1M_AVG,status,PR1M_SUM,status,RH1M_AVG,status,SR1M_AVG,status,TA1M_AVG,status,W1dAve1m,status,W1sAve1m,
2006-04-23, 00:00:00,VALID,917.675,VALID,0,VALID,100,VALID,-0.220751,VALID,18.1558,VALID,321,VALID,0.898438,
2006-04-23, 00:01:00,VALID,917.667,VALID,0,VALID,99.9456,VALID,-0.237732,VALID,18.9428,VALID,304,VALID,0.479048,
2006-04-23, 00:02:00,VALID,917.641,VALID,0,VALID,99.9832,VALID,-0.237732,VALID,18.3385,VALID,357,VALID,0.411272,
2006-04-23, 00:03:00,VALID,917.595,VALID,0,VALID,100,VALID,-0.220751,VALID,19.557,VALID,15,VALID,0.873512,
2006-04-23, 00:04:00,VALID,917.57,VALID,0,VALID,99.9738,VALID,-0.220751,VALID,18.6839,VALID,331,VALID,1.22602,
2006-04-23, 00:05:00,VALID,917.574,VALID,0,VALID,99.7828,VALID,-0.271693,VALID,18.939,VALID,325,VALID,1.22582,
2006-04-23, 00:06:00,VALID,917.565,VALID,0,VALID,99.7892,VALID,-0.254712,VALID,18.8711,VALID,352,VALID,0.509266,
2006-04-23, 00:07:00,VALID,917.529,VALID,0,VALID,99.9374,VALID,-0.237732,VALID,19.1904,VALID,16,VALID,1.40415,
2006-04-23, 00:08:00,VALID,917.514,VALID,0,VALID,100,VALID,-0.305655,VALID,19.0544,VALID,10,VALID,1.46265,
2006-04-23, 00:09:00,VALID,917.521,VALID,0,VALID,100,VALID,-0.339617,VALID,18.1788,VALID,338,VALID,0.733373,
2006-04-23, 00:10:00,VALID,917.511,VALID,0,VALID,100,VALID,-0.305655,VALID,18.2452,VALID,356,VALID,0.948765,
2006-04-23, 00:11:00,VALID,917.511,VALID,0,VALID,100,VALID,-0.305655,VALID,18.6297,VALID,5,VALID,1.32013,
2006-04-23, 00:12:00,VALID,917.492,VALID,0,VALID,100,VALID,-0.305655,VALID,18.7457,VALID,7,VALID,1.32919,
2006-04-23, 00:13:00,VALID,917.473,VALID,0,VALID,100,VALID,-0.288674,VALID,19.0308,VALID,1,VALID,1.38451,
2006-04-23, 00:14:00,VALID,917.467,VALID,0,VALID,100,VALID,-0.305655,VALID,18.4277,VALID,336,VALID,0.725,
2006-04-23, 00:15:00,VALID,917.456,VALID,0,VALID,100,VALID,-0.322636,VALID,19.0126,VALID,15,VALID,0.62221,
2006-04-23, 00:16:00,VALID,917.45,VALID,0,VALID,100,VALID,-0.305655,VALID,19.2855,VALID,21,VALID,1.05145,
2006-04-23, 00:17:00,VALID,917.416,VALID,0,VALID,100,VALID,-0.305655,VALID,19.4217,VALID,16,VALID,1.44804,
2006-04-23, 00:18:00,VALID,917.418,VALID,0,VALID,100,VALID,-0.322636,VALID,19.0994,VALID,6,VALID,0.805959,
2006-04-23, 00:19:00,VALID,917.4,VALID,0,VALID,100,VALID,-0.288674,VALID,18.5689,VALID,360,VALID,1.17083,
2006-04-23, 00:20:00,VALID,917.403,VALID,0,VALID,100,VALID,-0.220751,VALID,18.288,VALID,351,VALID,1.31468,
2006-04-23, 00:21:00,VALID,917.418,VALID,0,VALID,100,VALID,-0.220751,VALID,18.8465,VALID,360,VALID,1.40098,
2006-04-23, 00:22:00,VALID,917.438,VALID,0,VALID,100,VALID,-0.20377,VALID,18.7351,VALID,356,VALID,1.05655,
2006-04-23, 00:23:00,VALID,917.452,VALID,0,VALID,100,VALID,-0.271693,VALID,19.1376,VALID,8,VALID,1.38227,
2006-04-23, 00:24:00,VALID,917.436,VALID,0,VALID,100,VALID,-0.254712,VALID,18.665,VALID,5,VALID,1.27453,
2006-04-23, 00:25:00,VALID,917.44,VALID,0,VALID,100,VALID,-0.220751,VALID,19.7361,VALID,358,VALID,1.19885,
2006-04-23, 00:26:00,VALID,917.429,VALID,0,VALID,100,VALID,-0.237732,VALID,18.9354,VALID,357,VALID,1.25017,
2006-04-23, 00:27:00,VALID,917.422,VALID,0,VALID,100,VALID,-0.271693,VALID,19.6712,VALID,358,VALID,1.39323,
2006-04-23, 00:28:00,VALID,917.389,VALID,0,VALID,100,VALID,-0.220751,VALID,18.8406,VALID,354,VALID,1.65282,
2006-04-23, 00:29:00,VALID,917.387,VALID,0,VALID,100,VALID,-0.220751,VALID,18.3876,VALID,355,VALID,2.07449,
2006-04-23, 00:30:00,VALID,917.379,VALID,0,VALID,100,VALID,-0.237732,VALID,18.8143,VALID,348,VALID,1.7763,
2006-04-23, 00:31:00,VALID,917.37,VALID,0,VALID,100,VALID,-0.288674,VALID,18.2099,VALID,355,VALID,1.81414,
2006-04-23, 00:32:00,VALID,917.36,VALID,0,VALID,100,VALID,-0.288674,VALID,19.1764,VALID,353,VALID,1.75428,
2006-04-23, 00:33:00,VALID,917.328,VALID,0,VALID,100,VALID,-0.220751,VALID,18.9542,VALID,359,VALID,1.54647,
2006-04-23, 00:34:00,VALID,917.298,VALID,0,VALID,100,VALID,-0.305655,VALID,18.287,VALID,8,VALID,2.53277,
2006-04-23, 00:35:00,VALID,917.318,VALID,0,VALID,100,VALID,-0.322636,VALID,18.9846,VALID,9,VALID,1.52101,
2006-04-23, 00:36:00,VALID,917.266,VALID,0,VALID,100,VALID,-0.322636,VALID,18.9388,VALID,4,VALID,2.16159,
2006-04-23, 00:37:00,VALID,917.246,VALID,0,VALID,100,VALID,-0.254712,VALID,18.9483,VALID,7,VALID,1.61563,
2006-04-23, 00:38:00,VALID,917.227,VALID,0,VALID,100,VALID,-0.20377,VALID,19.0717,VALID,3,VALID,1.38015,
2006-04-23, 00:39:00,VALID,917.198,VALID,0,VALID,100,VALID,-0.237732,VALID,18.2542,VALID,344,VALID,1.94709,
2006-04-23, 00:40:00,VALID,917.184,VALID,0,VALID,99.9893,VALID,-0.322636,VALID,18.7383,VALID,353,VALID,1.51339,
2006-04-23, 00:41:00,VALID,917.18,VALID,0,VALID,99.9252,VALID,-0.322636,VALID,18.3029,VALID,353,VALID,1.14863,
2006-04-23, 00:42:00,VALID,917.159,VALID,0,VALID,99.8146,VALID,-0.237732,VALID,18.973,VALID,345,VALID,1.21756,
2006-04-23, 00:43:00,VALID,917.137,VALID,0,VALID,99.7968,VALID,-0.237732,VALID,19.0616,VALID,359,VALID,0.747713,
2006-04-23, 00:44:00,VALID,917.115,VALID,0,VALID,99.8782,VALID,-0.20377,VALID,19.328,VALID,359,VALID,0.909226,
2006-04-23, 00:45:00,VALID,917.096,VALID,0,VALID,99.9807,VALID,-0.20377,VALID,18.4684,VALID,26,VALID,0.733232,
2006-04-23, 00:46:00,VALID,917.086,VALID,0,VALID,100,VALID,-0.220751,VALID,18.8804,VALID,19,VALID,1.04528,
2006-04-23, 00:47:00,VALID,917.065,VALID,0,VALID,100,VALID,-0.20377,VALID,18.6914,VALID,9,VALID,1.13967,
2006-04-23, 00:48:00,VALID,917.036,VALID,0,VALID,100,VALID,-0.220751,VALID,18.586,VALID,356,VALID,1.7026,
2006-04-23, 00:49:00,VALID,917.026,VALID,0,VALID,100,VALID,-0.220751,VALID,19.3742,VALID,3,VALID,0.997332,
2006-04-23, 00:50:00,VALID,917.012,VALID,0,VALID,100,VALID,-0.220751,VALID,18.9038,VALID,12,VALID,1.57755,
2006-04-23, 00:51:00,VALID,917.009,VALID,0,VALID,100,VALID,-0.254712,VALID,19.9789,VALID,359,VALID,1.46366,
2006-04-23, 00:52:00,VALID,917.006,VALID,0,VALID,100,VALID,-0.20377,VALID,18.6201,VALID,1,VALID,1.66997,
2006-04-23, 00:53:00,VALID,917.008,VALID,0,VALID,100,VALID,-0.237732,VALID,19.0407,VALID,359,VALID,1.53348,
2006-04-23, 00:54:00,VALID,916.999,VALID,0,VALID,100,VALID,-0.237732,VALID,19.0524,VALID,6,VALID,1.22452,
2006-04-23, 00:55:00,VALID,916.988,VALID,0,VALID,100,VALID,-0.20377,VALID,17.7634,VALID,3,VALID,1.58448,
2006-04-23, 00:56:00,VALID,916.977,VALID,0,VALID,100,VALID,-0.288674,VALID,19.0945,VALID,350,VALID,1.26309,
2006-04-23, 00:57:00,VALID,916.951,VALID,0,VALID,100,VALID,-0.237732,VALID,18.2012,VALID,359,VALID,1.64299,
2006-04-23, 00:58:00,VALID,916.941,VALID,0,VALID,100,VALID,-0.237732,VALID,18.9989,VALID,360,VALID,1.29395,
2006-04-23, 00:59:00,VALID,916.883,VALID,0,VALID,100,VALID,-0.237732,VALID,19.178,VALID,356,VALID,1.87551,
2006-04-23, 01:00:00,VALID,916.883,VALID,0,VALID,100,VALID,-0.254712,VALID,18.938,VALID,340,VALID,1.44438,
2006-04-23, 01:01:00,VALID,916.848,VALID,0,VALID,100,VALID,-0.254712,VALID,18.4854,VALID,360,VALID,1.41443,
2006-04-23, 01:02:00,VALID,916.827,VALID,0,VALID,100,VALID,-0.254712,VALID,18.5571,VALID,2,VALID,1.17695,
2006-04-23, 01:03:00,VALID,916.801,VALID,0,VALID,100,VALID,-0.220751,VALID,18.7617,VALID,5,VALID,1.10709,
2006-04-23, 01:04:00,VALID,916.784,VALID,0,VALID,100,VALID,-0.20377,VALID,17.7799,VALID,1,VALID,1.17764,
2006-04-23, 01:05:00,VALID,916.768,VALID,0,VALID,100,VALID,-0.254712,VALID,18.1145,VALID,350,VALID,1.42205,
2006-04-23, 01:06:00,VALID,916.758,VALID,0,VALID,100,VALID,-0.305655,VALID,18.0351,VALID,10,VALID,1.27778,
2006-04-23, 01:07:00,VALID,916.761,VALID,0,VALID,100,VALID,-0.322636,VALID,18.9572,VALID,6,VALID,1.19306,
2006-04-23, 01:08:00,VALID,916.755,VALID,0,VALID,100,VALID,-0.220751,VALID,18.5593,VALID,354,VALID,1.48056,
2006-04-23, 01:09:00,VALID,916.74,VALID,0,VALID,100,VALID,-0.220751,VALID,19.4231,VALID,339,VALID,1.37559,
2006-04-23, 01:10:00,VALID,916.732,VALID,0,VALID,100,VALID,-0.20377,VALID,18.3203,VALID,4,VALID,1.40545,
2006-04-23, 01:11:00,VALID,916.7,VALID,0,VALID,100,VALID,-0.237732,VALID,19.1467,VALID,348,VALID,1.66066,
2006-04-23, 01:12:00,VALID,916.676,VALID,0,VALID,99.8856,VALID,-0.20377,VALID,18.5001,VALID,346,VALID,1.75868,
2006-04-23, 01:13:00,VALID,916.651,VALID,0,VALID,99.5794,VALID,-0.220751,VALID,18.0718,VALID,4,VALID,1.28525,
2006-04-23, 01:14:00,VALID,916.625,VALID,0,VALID,99.47,VALID,-0.271693,VALID,19.2755,VALID,4,VALID,1.26136,
2006-04-23, 01:15:00,VALID,916.596,VALID,0,VALID,99.3479,VALID,-0.237732,VALID,18.8219,VALID,351,VALID,1.25835,
2006-04-23, 01:16:00,VALID,916.554,VALID,0,VALID,99.2119,VALID,-0.254712,VALID,18.6091,VALID,336,VALID,1.47972,
2006-04-23, 01:17:00,VALID,916.528,VALID,0,VALID,99.0122,VALID,-0.271693,VALID,18.9859,VALID,354,VALID,1.82246,
2006-04-23, 01:18:00,VALID,916.525,VALID,0,VALID,98.7922,VALID,-0.237732,VALID,19.505,VALID,338,VALID,1.10742,
2006-04-23, 01:19:00,VALID,916.498,VALID,0,VALID,98.8685,VALID,-0.237732,VALID,19.0174,VALID,11,VALID,1.21693,
2006-04-23, 01:20:00,VALID,916.479,VALID,0,VALID,98.9931,VALID,-0.254712,VALID,19.357,VALID,356,VALID,1.52846,
2006-04-23, 01:21:00,VALID,916.44,VALID,0,VALID,99.0427,VALID,-0.220751,VALID,18.7292,VALID,360,VALID,1.56389,
2006-04-23, 01:22:00,VALID,916.411,VALID,0,VALID,98.9168,VALID,-0.356597,VALID,18.6957,VALID,352,VALID,1.82946,
2006-04-23, 01:23:00,VALID,916.39,VALID,0,VALID,98.8227,VALID,-0.288674,VALID,19.6064,VALID,357,VALID,1.37391,
2006-04-23, 01:24:00,VALID,916.385,VALID,0,VALID,98.7986,VALID,-0.254712,VALID,20.3607,VALID,331,VALID,1.27217,
2006-04-23, 01:25:00,VALID,916.371,VALID,0,VALID,98.777,VALID,-0.322636,VALID,18.9189,VALID,346,VALID,1.3609,
2006-04-23, 01:26:00,VALID,916.34,VALID,0,VALID,98.5926,VALID,-0.373578,VALID,19.1202,VALID,357,VALID,1.55599,
2006-04-23, 01:27:00,VALID,916.312,VALID,0,VALID,98.3256,VALID,-0.322636,VALID,18.4494,VALID,335,VALID,1.82191,
2006-04-23, 01:28:00,VALID,916.299,VALID,0,VALID,98.0547,VALID,-0.254712,VALID,18.8629,VALID,359,VALID,0.936166,
2006-04-23, 01:29:00,VALID,916.271,VALID,0,VALID,97.9657,VALID,-0.254712,VALID,19.2029,VALID,10,VALID,0.786014,
2006-04-23, 01:30:00,VALID,916.262,VALID,0,VALID,97.8868,VALID,-0.20377,VALID,18.3223,VALID,328,VALID,1.11217,
2006-04-23, 01:31:00,VALID,916.246,VALID,0,VALID,97.8411,VALID,-0.237732,VALID,18.8223,VALID,299,VALID,0.642361,
2006-04-23, 01:32:00,VALID,916.22,VALID,0,VALID,97.9809,VALID,-0.254712,VALID,19.5731,VALID,315,VALID,0.496271,
2006-04-23, 01:33:00,VALID,916.177,VALID,0,VALID,98.2048,VALID,-0.373578,VALID,18.8539,VALID,340,VALID,0.876999,
2006-04-23, 01:34:00,VALID,916.146,VALID,0,VALID,98.4934,VALID,-0.322636,VALID,18.8064,VALID,356,VALID,1.09097,
2006-04-23, 01:35:00,VALID,916.124,VALID,0,VALID,98.571,VALID,-0.254712,VALID,18.9389,VALID,322,VALID,0.757068,
2006-04-23, 01:36:00,VALID,916.09,VALID,0,VALID,98.5799,VALID,-0.271693,VALID,19.4336,VALID,343,VALID,1.22773,
2006-04-23, 01:37:00,VALID,916.052,VALID,0,VALID,98.4082,VALID,-0.237732,VALID,18.7224,VALID,352,VALID,1.13663,
2006-04-23, 01:38:00,VALID,916.047,VALID,0,VALID,98.2925,VALID,-0.20377,VALID,18.3388,VALID,348,VALID,0.950521,
2006-04-23, 01:39:00,VALID,916.038,VALID,0,VALID,98.2658,VALID,-0.237732,VALID,18.531,VALID,338,VALID,0.914426,
2006-04-23, 01:40:00,VALID,916.027,VALID,0,VALID,98.398,VALID,-0.254712,VALID,18.1531,VALID,337,VALID,1.49255,
2006-04-23, 01:41:00,VALID,916.006,VALID,0,VALID,98.5417,VALID,-0.220751,VALID,19.4256,VALID,316,VALID,1.05129,
2006-04-23, 01:42:00,VALID,915.992,VALID,0,VALID,98.7833,VALID,-0.220751,VALID,18.9643,VALID,347,VALID,1.03379,
2006-04-23, 01:43:00,VALID,915.961,VALID,0,VALID,98.9003,VALID,-0.220751,VALID,18.8311,VALID,330,VALID,0.831174,
2006-04-23, 01:44:00,VALID,915.944,VALID,0,VALID,98.997,VALID,-0.356597,VALID,18.8043,VALID,331,VALID,0.590039,
2006-04-23, 01:45:00,VALID,915.915,VALID,0,VALID,99.1699,VALID,-0.322636,VALID,18.748,VALID,337,VALID,0.396341,
2006-04-23, 01:46:00,VALID,915.921,VALID,0,VALID,99.3568,VALID,-0.322636,VALID,18.9129,VALID,329,VALID,0.893532,
2006-04-23, 01:47:00,VALID,915.907,VALID,0,VALID,99.5387,VALID,-0.322636,VALID,19.059,VALID,341,VALID,0.975497,
2006-04-23, 01:48:00,VALID,915.88,VALID,0,VALID,99.7599,VALID,-0.220751,VALID,19.0836,VALID,355,VALID,1.09339,
2006-04-23, 01:49:01,VALID,915.842,VALID,0,VALID,99.765,VALID,-0.220751,VALID,18.3043,VALID,355,VALID,1.15997,
2006-04-23, 01:50:01,VALID,915.808,VALID,0,VALID,99.6696,VALID,-0.305655,VALID,18.8612,VALID,6,VALID,1.07641,
2006-04-23, 01:51:00,VALID,915.806,VALID,0,VALID,99.718,VALID,-0.356597,VALID,18.8485,VALID,2,VALID,0.84468,
2006-04-23, 01:52:00,VALID,915.784,VALID,0,VALID,99.8375,VALID,-0.373578,VALID,18.4114,VALID,11,VALID,0.633765,
2006-04-23, 01:53:00,VALID,915.785,VALID,0,VALID,99.9252,VALID,-0.305655,VALID,18.9763,VALID,360,VALID,0.521341,
2006-04-23, 01:54:01,VALID,915.791,VALID,0,VALID,99.9842,VALID,-0.220751,VALID,18.9381,VALID,1,VALID,1.24676,
2006-04-23, 01:55:00,VALID,915.779,VALID,0,VALID,99.8413,VALID,-0.356597,VALID,17.9383,VALID,354,VALID,1.59121,
2006-04-23, 01:56:00,VALID,915.797,VALID,0,VALID,99.6315,VALID,-0.339617,VALID,18.8571,VALID,349,VALID,1.09375,
2006-04-23, 01:57:00,VALID,915.791,VALID,0,VALID,99.4242,VALID,-0.271693,VALID,19.0546,VALID,350,VALID,0.871626,
2006-04-23, 01:58:01,VALID,915.768,VALID,0,VALID,99.2742,VALID,-0.271693,VALID,18.8435,VALID,357,VALID,0.85026,
2006-04-23, 01:59:00,VALID,915.749,VALID,0,VALID,99.1623,VALID,-0.305655,VALID,18.9345,VALID,352,VALID,0.933093,
2006-04-23, 02:00:00,VALID,915.739,VALID,0,VALID,98.941,VALID,-0.237732,VALID,19.3972,VALID,345,VALID,1.32388,
2006-04-23, 02:01:00,VALID,915.736,VALID,0,VALID,98.7859,VALID,-0.271693,VALID,19.0888,VALID,357,VALID,0.41183,
2006-04-23, 02:02:00,VALID,915.729,VALID,0,VALID,98.7172,VALID,-0.271693,VALID,18.5816,VALID,359,VALID,0.59375,
2006-04-23, 02:03:00,VALID,915.709,VALID,0,VALID,98.7643,VALID,-0.271693,VALID,18.8772,VALID,308,VALID,1.13281,
2006-04-23, 02:04:00,VALID,915.706,VALID,0,VALID,98.7693,VALID,-0.288674,VALID,18.3401,VALID,344,VALID,0.881944,
2006-04-23, 02:05:00,VALID,915.684,VALID,0,VALID,98.7986,VALID,-0.271693,VALID,18.8944,VALID,349,VALID,0.624479,
2006-04-23, 02:06:00,VALID,915.673,VALID,0,VALID,98.9054,VALID,-0.254712,VALID,19.1525,VALID,331,VALID,0.370276,
2006-04-23, 02:07:00,VALID,915.675,VALID,0,VALID,98.9728,VALID,-0.237732,VALID,18.8205,VALID,326,VALID,0.0414063,
2006-04-23, 02:08:00,VALID,915.678,VALID,0,VALID,99.1089,VALID,-0.288674,VALID,19.5029,VALID,326,VALID,0.000177557,
2006-04-23, 02:09:00,VALID,915.665,VALID,0,VALID,99.2576,VALID,-0.271693,VALID,19.0764,VALID,326,VALID,0.174479,
2006-04-23, 02:10:00,VALID,915.661,VALID,0,VALID,99.353,VALID,-0.271693,VALID,18.5913,VALID,79,VALID,0.175145,
2006-04-23, 02:11:00,VALID,915.692,VALID,0,VALID,99.4255,VALID,-0.271693,VALID,19.1476,VALID,139,VALID,0,
2006-04-23, 02:12:00,VALID,915.693,VALID,0,VALID,99.573,VALID,-0.254712,VALID,18.816,VALID,139,VALID,0,
2006-04-23, 02:13:00,VALID,915.688,VALID,0,VALID,99.6556,VALID,-0.254712,VALID,19.4671,VALID,139,VALID,0,
2006-04-23, 02:14:00,VALID,915.673,VALID,0,VALID,99.7497,VALID,-0.288674,VALID,19.3364,VALID,131,VALID,0.124467,
2006-04-23, 02:15:00,VALID,915.68,VALID,0,VALID,99.9313,VALID,-0.254712,VALID,18.8477,VALID,29,VALID,0.561198,
2006-04-23, 02:16:00,VALID,915.7,VALID,0,VALID,100,VALID,-0.322636,VALID,18.2798,VALID,29,VALID,0.396763,
2006-04-23, 02:17:00,VALID,915.729,VALID,0,VALID,100,VALID,-0.271693,VALID,19.1986,VALID,29,VALID,0.575076,
2006-04-23, 02:18:00,VALID,915.735,VALID,0,VALID,100,VALID,-0.20377,VALID,18.5277,VALID,26,VALID,0.684952,
2006-04-23, 02:19:01,VALID,915.723,VALID,0,VALID,100,VALID,-0.220751,VALID,18.6319,VALID,25,VALID,0.700763,
2006-04-23, 02:20:00,VALID,915.705,VALID,0,VALID,100,VALID,-0.220751,VALID,18.319,VALID,16,VALID,0.655007,
2006-04-23, 02:21:01,VALID,915.71,VALID,0,VALID,100,VALID,-0.20377,VALID,18.7866,VALID,356,VALID,0.399164,
2006-04-23, 02:22:00,VALID,915.706,VALID,0,VALID,100,VALID,-0.220751,VALID,18.7397,VALID,3,VALID,0.397166,
2006-04-23, 02:23:00,VALID,915.712,VALID,0,VALID,100,VALID,-0.237732,VALID,19.2134,VALID,358,VALID,0.132254,
2006-04-23, 02:24:00,VALID,915.709,VALID,0,VALID,100,VALID,-0.768552,VALID,19.0539,VALID,358,VALID,0.169085,
2006-04-23, 02:25:01,VALID,915.69,VALID,0,VALID,100,VALID,-0.322636,VALID,18.7714,VALID,358,VALID,0.47218,
2006-04-23, 02:26:01,VALID,915.659,VALID,0,VALID,100,VALID,-0.322636,VALID,19.137,VALID,17,VALID,1.13633,
2006-04-23, 02:27:00,VALID,915.648,VALID,0,VALID,100,VALID,-0.339617,VALID,17.9488,VALID,5,VALID,1.31479,
2006-04-23, 02:28:00,VALID,915.651,VALID,0,VALID,100,VALID,-0.305655,VALID,18.2112,VALID,8,VALID,1.11589,
2006-04-23, 02:29:00,VALID,915.656,VALID,0,VALID,100,VALID,-0.20377,VALID,19.3741,VALID,347,VALID,1.23672,
2006-04-23, 02:30:00,VALID,915.671,VALID,0,VALID,100,VALID,-0.220751,VALID,19.3485,VALID,339,VALID,0.790661,
2006-04-23, 02:31:01,VALID,915.68,VALID,0,VALID,100,VALID,-0.237732,VALID,18.8894,VALID,328,VALID,0.702381,
2006-04-23, 02:32:01,VALID,915.694,VALID,0,VALID,99.9784,VALID,-0.220751,VALID,19.131,VALID,328,VALID,0.603561,
2006-04-23, 02:33:00,VALID,915.692,VALID,0,VALID,99.8489,VALID,-0.237732,VALID,19.2377,VALID,349,VALID,1.04954,
2006-04-23, 02:34:00,VALID,915.683,VALID,0,VALID,99.62,VALID,-0.20377,VALID,18.7679,VALID,335,VALID,0.920508,
2006-04-23, 02:35:00,VALID,915.683,VALID,0,VALID,99.5259,VALID,-0.237732,VALID,18.8782,VALID,347,VALID,0.885975,
2006-04-23, 02:36:01,VALID,915.664,VALID,0,VALID,99.3835,VALID,-0.288674,VALID,19.3037,VALID,340,VALID,1.21551,
2006-04-23, 02:37:00,VALID,915.646,VALID,0,VALID,99.2856,VALID,-0.220751,VALID,18.3155,VALID,355,VALID,1.02071,
2006-04-23, 02:38:00,VALID,915.632,VALID,0,VALID,99.1864,VALID,-0.237732,VALID,19.0496,VALID,348,VALID,0.981585,
2006-04-23, 02:39:00,VALID,915.641,VALID,0,VALID,99.1508,VALID,-0.20377,VALID,18.5256,VALID,344,VALID,0.765811,
2006-04-23, 02:40:00,VALID,915.619,VALID,0,VALID,99.1318,VALID,-0.220751,VALID,18.2639,VALID,346,VALID,0.69077,
2006-04-23, 02:41:00,VALID,915.6,VALID,0,VALID,99.2042,VALID,-0.237732,VALID,19.3495,VALID,8,VALID,0.949023,
2006-04-23, 02:42:00,VALID,915.582,VALID,0,VALID,99.2157,VALID,-0.254712,VALID,18.4104,VALID,344,VALID,1.12227,
2006-04-23, 02:43:00,VALID,915.578,VALID,0,VALID,99.0733,VALID,-0.305655,VALID,18.5538,VALID,344,VALID,1.57396,
2006-04-23, 02:44:01,VALID,915.566,VALID,0,VALID,98.9614,VALID,-0.305655,VALID,18.8533,VALID,356,VALID,0.994048,
2006-04-23, 02:45:00,VALID,915.58,VALID,0,VALID,98.8329,VALID,-0.254712,VALID,18.7667,VALID,327,VALID,1.17597,
2006-04-23, 02:46:01,VALID,915.579,VALID,0,VALID,98.7147,VALID,-0.220751,VALID,19.0901,VALID,343,VALID,1.15377,
2006-04-23, 02:47:00,VALID,915.559,VALID,0,VALID,98.674,VALID,-0.220751,VALID,18.6101,VALID,347,VALID,1.19095,
2006-04-23, 02:48:01,VALID,915.56,VALID,0,VALID,98.6295,VALID,-0.237732,VALID,18.5009,VALID,349,VALID,1.23544,
2006-04-23, 02:49:01,VALID,915.55,VALID,0,VALID,98.6485,VALID,-0.220751,VALID,19.3514,VALID,351,VALID,1.43477,
2006-04-23, 02:50:00,VALID,915.534,VALID,0,VALID,98.6269,VALID,-0.339617,VALID,18.4569,VALID,342,VALID,1.30362,
2006-04-23, 02:51:01,VALID,915.528,VALID,0,VALID,98.5939,VALID,-0.305655,VALID,19.3476,VALID,349,VALID,1.42442,
2006-04-23, 02:52:00,VALID,915.519,VALID,0,VALID,98.5074,VALID,-0.305655,VALID,18.7647,VALID,352,VALID,1.37009,
2006-04-23, 02:53:01,VALID,915.523,VALID,0,VALID,98.4514,VALID,-0.322636,VALID,19.0256,VALID,352,VALID,1.20295,
2006-04-23, 02:54:00,VALID,915.504,VALID,0,VALID,98.4298,VALID,-0.421379,VALID,18.7461,VALID,350,VALID,1.42626,
2006-04-23, 02:55:00,VALID,915.509,VALID,0,VALID,98.4158,VALID,-0.356597,VALID,17.8831,VALID,357,VALID,1.11555,
2006-04-23, 02:56:00,VALID,915.523,VALID,0,VALID,98.44,VALID,-0.339617,VALID,18.7909,VALID,337,VALID,1.39323,
2006-04-23, 02:57:00,VALID,915.509,VALID,0,VALID,98.4527,VALID,-0.322636,VALID,19.5953,VALID,344,VALID,1.22745,
2006-04-23, 02:58:00,VALID,915.517,VALID,0,VALID,98.4336,VALID,-0.220751,VALID,18.4754,VALID,356,VALID,1.2778,
2006-04-23, 02:59:00,VALID,915.51,VALID,0,VALID,98.4438,VALID,-0.237732,VALID,18.2969,VALID,3,VALID,1.1332,
2006-04-23, 03:00:00,VALID,915.491,VALID,0,VALID,98.4985,VALID,-0.254712,VALID,18.8668,VALID,347,VALID,1.20982,
2006-04-23, 03:01:00,VALID,915.471,VALID,0,VALID,98.5926,VALID,-0.220751,VALID,19.188,VALID,354,VALID,1.008,
2006-04-23, 03:02:00,VALID,915.456,VALID,0,VALID,98.6791,VALID,-0.237732,VALID,19.5914,VALID,355,VALID,1.55816,
2006-04-23, 03:03:01,VALID,915.45,VALID,0,VALID,98.7121,VALID,-0.220751,VALID,18.9401,VALID,359,VALID,1.35491,
2006-04-23, 03:04:01,VALID,915.451,VALID,0,VALID,98.7274,VALID,-0.271693,VALID,18.6318,VALID,343,VALID,1.17478,
2006-04-23, 03:05:00,VALID,915.46,VALID,0,VALID,98.6943,VALID,-0.220751,VALID,19.0605,VALID,343,VALID,0.84702,
2006-04-23, 03:06:00,VALID,915.449,VALID,0,VALID,98.6752,VALID,-0.220751,VALID,19.1383,VALID,354,VALID,0.983103,
2006-04-23, 03:07:00,VALID,915.458,VALID,0,VALID,98.693,VALID,-0.271693,VALID,19.9712,VALID,348,VALID,1.63548,
2006-04-23, 03:08:01,VALID,915.456,VALID,0,VALID,98.6269,VALID,-0.322636,VALID,19.5464,VALID,346,VALID,0.989901,
2006-04-23, 03:09:00,VALID,915.471,VALID,0,VALID,98.5989,VALID,-0.305655,VALID,18.7997,VALID,350,VALID,1.31306,
2006-04-23, 03:10:00,VALID,915.489,VALID,0,VALID,98.5277,VALID,-0.237732,VALID,18.5937,VALID,321,VALID,0.980646,
2006-04-23, 03:11:00,VALID,915.491,VALID,0,VALID,98.4781,VALID,-0.322636,VALID,19.5972,VALID,339,VALID,0.935547,
2006-04-23, 03:12:00,VALID,915.501,VALID,0,VALID,98.4324,VALID,-0.271693,VALID,19.3951,VALID,341,VALID,0.779978,
2006-04-23, 03:13:00,VALID,915.518,VALID,0,VALID,98.4095,VALID,-0.339617,VALID,19.0362,VALID,338,VALID,0.927269,
2006-04-23, 03:14:01,VALID,915.519,VALID,0,VALID,98.3751,VALID,-0.254712,VALID,18.8006,VALID,330,VALID,0.850836,
2006-04-23, 03:15:00,VALID,915.514,VALID,0,VALID,98.4146,VALID,-0.271693,VALID,19.2219,VALID,330,VALID,0.782203,
2006-04-23, 03:16:00,VALID,915.514,VALID,0,VALID,98.5722,VALID,-0.254712,VALID,19.0813,VALID,343,VALID,0.643601,
2006-04-23, 03:17:01,VALID,915.501,VALID,0,VALID,98.8037,VALID,-0.339617,VALID,19.0944,VALID,7,VALID,0.587798,
2006-04-23, 03:18:00,VALID,915.51,VALID,0,VALID,98.9753,VALID,-0.322636,VALID,18.9642,VALID,353,VALID,0.775391,
2006-04-23, 03:19:01,VALID,915.513,VALID,0,VALID,99.0542,VALID,-0.373578,VALID,18.9336,VALID,355,VALID,1.06197,
2006-04-23, 03:20:00,VALID,915.517,VALID,0,VALID,99.1216,VALID,-0.390559,VALID,18.9138,VALID,6,VALID,0.831836,
2006-04-23, 03:21:00,VALID,915.538,VALID,0,VALID,99.0885,VALID,-0.339617,VALID,18.8999,VALID,342,VALID,0.855015,
2006-04-23, 03:22:00,VALID,915.55,VALID,0,VALID,99.0809,VALID,-0.339617,VALID,19.2138,VALID,331,VALID,0.645579,
2006-04-23, 03:23:01,VALID,915.539,VALID,0,VALID,99.0338,VALID,-0.322636,VALID,18.8618,VALID,340,VALID,1.04076,
2006-04-23, 03:24:00,VALID,915.519,VALID,0,VALID,98.9207,VALID,-0.271693,VALID,18.474,VALID,342,VALID,1.20517,
2006-04-23, 03:25:00,VALID,915.521,VALID,0,VALID,98.6981,VALID,-0.884276,VALID,19.4279,VALID,338,VALID,1.45556,
2006-04-23, 03:26:00,VALID,915.507,VALID,0,VALID,98.4527,VALID,-0.884276,VALID,19.0716,VALID,348,VALID,1.26036,
2006-04-23, 03:27:00,VALID,915.505,VALID,0,VALID,98.3459,VALID,-0.322636,VALID,19.2038,VALID,354,VALID,1.14751,
2006-04-23, 03:28:01,VALID,915.486,VALID,0,VALID,98.2785,VALID,-0.305655,VALID,19.3616,VALID,358,VALID,1.17678,
2006-04-23, 03:29:01,VALID,915.464,VALID,0,VALID,98.248,VALID,-0.305655,VALID,18.5695,VALID,359,VALID,1.10865,
2006-04-23, 03:30:00,VALID,915.443,VALID,0,VALID,98.1437,VALID,-0.305655,VALID,18.7844,VALID,4,VALID,1.27649,
2006-04-23, 03:31:00,VALID,915.425,VALID,0,VALID,97.9949,VALID,-0.305655,VALID,18.662,VALID,356,VALID,1.23568,
2006-04-23, 03:32:01,VALID,915.425,VALID,0,VALID,97.8652,VALID,-0.305655,VALID,18.5007,VALID,330,VALID,1.05015,
2006-04-23, 03:33:00,VALID,915.43,VALID,0,VALID,97.8309,VALID,-0.288674,VALID,18.9265,VALID,350,VALID,1.05131,
2006-04-23, 03:34:01,VALID,915.425,VALID,0,VALID,97.7622,VALID,-0.305655,VALID,19.046,VALID,6,VALID,1.16025,
2006-04-23, 03:35:00,VALID,915.421,VALID,0,VALID,97.766,VALID,-0.271693,VALID,19.6197,VALID,358,VALID,0.96909,